Weather in Ust'-Sema

Russia / Altai Republic     51°38′44″N   85°45′37″E
temp.,
°C
wind,
m/s
gust,
m/s
humid.,
%
clouds,
%
prec.,
mm/h
press.,
hPa
HPBL,
m
28 february, sun
sun2801:00−24s229469 0.0 104122
04:00−24s23870 0.0 104132
07:00−23s33850 0.0 104152
10:00−18s367623 0.0 1039212
13:00−10sse376554 0.0 1034656
16:00−7sse3762100 0.0 10321126
19:00−10se2282100 0.0 103028
22:00−10sse3581100 0.0 1028148
1 march, mon
mon101:00−10s3683100 0.0 1026164
04:00−10sse3486100 0.0 1023123
07:00−9sse3585100 0.0 1021156
10:00−5s41470100 0.0 1019773
13:000ssw51264100 0.0 10161222
16:00+1ssw51167100 0.0 10151330
19:00−3s3774100 0.0 1016230
22:00−4ssw4972100 0.0 1015309
2 march, tue
tue201:00−4ssw4877100 0.0 1015224
04:00−5s377898 0.0 1015162
07:00−7s358191 0.0 101798
10:00−6s357999 0.0 1018153
13:000w136692 0.0 1017920
16:00−1n2286100 0.2 1016405
19:00−5ene1198100 0.6 101622
22:00−5s1198100 0.8 101621
3 march, wed
wed301:00−6ssw1293100 1.1 101521
04:00−7sw1188100 0.1 101521
07:00−6s1190100 0.1 101625
10:00−4ssw1287100 0.4 1015125
13:00−2n2287100 1.3 1016464
16:00−7nnw3492100 1.7 1017435
19:00−9nne2296100 2.4 1022182
22:00−12nne1197100 0.4 102629
4 march, thu
thu401:00−13ese1197100 0.4 102720
04:00−13sse1194100 0.0 102721
07:00−11sse1288100 0.0 102721
10:00−8s2380100 0.0 1026175
13:00−3sse2564100 0.0 1024642
16:000s146198 0.0 1022878
19:00−6nne118999 0.0 102321
22:00−8s2284100 0.0 102422